[[{"header":{"parameterUnit":"m.s-1","parameterCategory":1,"la1":30.2992,"la2":30.254,"lo1":-89.0895,"lo2":-89.0443,"dy":0.0025,"dx":0.0025,"nx":19,"ny":19,"refTime":"2026-04-03T21:00:00:Z","depth":0,"parameterNumber":2,"parameterNumberName":"U-component_of_WINDS"},"data":[0,0,0,-0.2036,-0.2036,-0.2018,-0.2018,-0.1998,-0.1998,0,0,0,0,0,0,0,0,0,0,0,-0.2043,-0.2043,-0.2036,-0.2036,-0.2018,-0.2018,-0.1998,-0.1998,0,0,0,0,0,0,0,0,0,0,0,-0.2043,-0.2043,-0.2043,-0.2036,-0.2018,-0.2018,-0.1998,-0.2011,0,0,0,0,0,0,0,0,0,0,-0.2028,-0.2036,-0.2043,-0.2043,-0.2036,-0.2018,-0.2018,-0.2011,-0.201,-0.2008,0,-0.2006,0,-0.2002,-0.1997,-0.1997,0,0,0,-0.2035,-0.2037,-0.203,-0.2043,-0.2036,-0.2018,-0.2026,-0.2011,-0.2009,-0.2006,-0.2006,-0.2005,-0.2001,-0.1997,-0.1997,-0.1987,-0.1987,0,0,-0.2036,-0.2041,-0.2031,-0.203,-0.2032,-0.2026,-0.2025,-0.201,-0.201,-0.2006,-0.2004,-0.2001,-0.1997,-0.1997,-0.1987,-0.1987,0,0,0,-0.2039,-0.2042,-0.2036,-0.203,-0.2027,-0.2026,-0.2024,-0.201,-0.2008,-0.2004,-0.2001,-0.1997,-0.1997,-0.1987,-0.1987,-0.1992,0,0,0,-0.204,-0.2044,-0.2036,-0.2039,-0.2027,-0.2018,-0.2025,-0.2009,-0.2007,-0.2001,-0.1997,-0.1996,-0.1987,-0.1987,-0.1992,-0.1994,0,0,0,-0.2044,-0.2044,-0.2042,-0.2039,-0.2032,-0.2018,-0.2015,-0.2008,-0.2005,-0.1997,-0.1996,-0.1987,-0.1987,-0.1992,-0.1993,-0.1993,0,0,0,-0.205,-0.2047,-0.2042,-0.2038,-0.2032,-0.2021,-0.2015,-0.2007,-0.2001,-0.1997,-0.1987,-0.1987,-0.1992,-0.1993,-0.1993,-0.1993,-0.1994,0,0,-0.2049,-0.2047,-0.2044,-0.2039,-0.2031,-0.2024,-0.2016,-0.2006,-0.2001,-0.1992,-0.1992,-0.1992,-0.1993,-0.1993,-0.1995,-0.1996,0,0,0,-0.2045,-0.2043,-0.204,-0.2034,-0.2026,-0.2019,-0.2009,-0.2006,-0.1998,-0.1997,-0.1991,-0.1992,-0.1992,-0.1992,-0.1992,-0.1991,-0.1987,-0.1987,-0.1987,-0.2051,-0.2045,-0.204,-0.2031,-0.2026,-0.2016,-0.2011,-0.2004,-0.1999,-0.1998,-0.1996,-0.1998,-0.1998,-0.1999,-0.1998,-0.1995,-0.1995,-0.1995,-0.1996,-0.2049,-0.2046,-0.204,-0.2032,-0.2026,-0.202,-0.2011,-0.2008,-0.2002,-0.1999,-0.1999,-0.1996,-0.1999,-0.1999,-0.1996,-0.1996,-0.1996,-0.1996,-0.1996,-0.2053,-0.205,-0.2045,-0.2036,-0.2031,-0.2023,-0.2017,-0.2012,-0.2006,-0.2006,-0.2003,-0.2002,-0.2002,-0.2005,-0.2005,-0.2005,-0.2005,-0.2005,-0.2005,-0.2058,-0.2052,-0.2048,-0.204,-0.2036,-0.203,-0.2021,-0.2017,-0.2011,-0.2007,-0.2007,-0.2003,-0.2001,-0.2001,-0.2005,-0.2005,-0.2005,-0.2005,-0.2005,-0.2058,-0.2058,-0.2051,-0.2047,-0.2037,-0.2032,-0.2025,-0.2018,-0.2014,-0.2012,-0.2008,-0.2007,-0.2005,-0.2004,-0.2004,-0.2009,-0.2009,-0.2009,-0.2009,-0.2061,-0.206,-0.2052,-0.2046,-0.204,-0.2033,-0.2027,-0.202,-0.2013,-0.2011,-0.2009,-0.2008,-0.2008,-0.2006,-0.2006,-0.2005,-0.201,-0.201,-0.201,-0.2062,-0.2059,-0.2055,-0.2047,-0.204,-0.2033,-0.2028,-0.2022,-0.2014,-0.201,-0.2009,-0.2008,-0.2007,-0.2007,-0.2003,-0.2002,-0.2002,0,0]},{"header":{"parameterUnit":"m.s-1","parameterCategory":1,"la1":30.2992,"la2":30.254,"lo1":-89.0895,"lo2":-89.0443,"dy":0.0025,"dx":0.0025,"nx":19,"ny":19,"refTime":"2026-04-03T21:00:00:Z","depth":0,"parameterNumber":3,"parameterNumberName":"V-component_of_WINDS"},"data":[0,0,0,2.7389,2.739,2.747,2.747,2.7569,2.757,0,0,0,0,0,0,0,0,0,0,0,2.7365,2.7366,2.7389,2.7391,2.747,2.747,2.7569,2.757,0,0,0,0,0,0,0,0,0,0,0,2.7365,2.7366,2.7367,2.7391,2.7469,2.747,2.7568,2.7509,0,0,0,0,0,0,0,0,0,0,2.7433,2.7411,2.7366,2.7367,2.7391,2.7469,2.747,2.7506,2.7513,2.7532,0,2.7551,0,2.7562,2.7576,2.7577,0,0,0,2.739,2.7406,2.7428,2.7367,2.7392,2.7469,2.7434,2.751,2.7517,2.7541,2.7552,2.7556,2.7564,2.7577,2.7577,2.7695,2.7696,0,0,2.7386,2.7379,2.7422,2.7432,2.7422,2.7431,2.7436,2.7514,2.7526,2.7553,2.7558,2.7565,2.7577,2.7578,2.7695,2.7696,0,0,0,2.7374,2.7376,2.7396,2.7428,2.7443,2.7434,2.7439,2.7522,2.7529,2.756,2.7566,2.7578,2.7579,2.7694,2.7695,2.7718,0,0,0,2.7371,2.7369,2.7394,2.7391,2.7441,2.7484,2.7445,2.7524,2.7533,2.7566,2.7578,2.758,2.7694,2.7695,2.7716,2.7729,0,0,0,2.736,2.7368,2.7379,2.739,2.7424,2.7483,2.7494,2.7526,2.7537,2.7577,2.758,2.7693,2.7694,2.7714,2.7727,2.7759,0,0,0,2.7346,2.7397,2.738,2.7439,2.7423,2.7497,2.7494,2.7548,2.7585,2.7579,2.7694,2.7695,2.7714,2.7725,2.7757,2.7786,2.7797,0,0,2.7407,2.7404,2.744,2.7426,2.7501,2.7485,2.7563,2.7602,2.761,2.7666,2.7669,2.7716,2.7726,2.7759,2.7862,2.787,0,0,0,2.7457,2.7482,2.7504,2.7539,2.7571,2.7599,2.7627,2.7641,2.7689,2.7638,2.7737,2.7743,2.7762,2.7776,2.7784,2.7801,2.7701,2.7701,2.7701,2.7532,2.7543,2.7602,2.7622,2.7656,2.7685,2.7714,2.7738,2.7737,2.776,2.7776,2.7838,2.7854,2.786,2.7877,2.7792,2.7792,2.7792,2.7792,2.7622,2.766,2.7659,2.7717,2.7727,2.7775,2.7805,2.7802,2.7848,2.7826,2.7843,2.7818,2.7869,2.7885,2.7794,2.7794,2.7794,2.7793,2.7793,2.7673,2.7693,2.7711,2.7764,2.7803,2.7821,2.7865,2.7872,2.7879,2.7896,2.7915,2.7915,2.7915,2.7905,2.7905,2.7905,2.7905,2.7905,2.7906,2.7719,2.7739,2.7776,2.7815,2.7839,2.7871,2.7901,2.7924,2.7952,2.7954,2.7954,2.7951,2.7872,2.7853,2.7909,2.7908,2.7908,2.7908,2.7907,2.7807,2.7788,2.7846,2.787,2.7917,2.7955,2.7964,2.8012,2.8032,2.8054,2.8047,2.7988,2.7985,2.7979,2.7963,2.8045,2.8045,2.8045,2.8045,2.785,2.785,2.7911,2.7949,2.7987,2.8002,2.8066,2.809,2.8111,2.8124,2.8113,2.8092,2.8086,2.8087,2.8079,2.8064,2.8169,2.817,2.817,2.7905,2.7909,2.7963,2.7985,2.8022,2.8053,2.8114,2.8157,2.8178,2.8175,2.8135,2.813,2.8096,2.8084,2.808,2.8067,2.804,0,0]}]]